Flag for India Weather past 2 weeks in Chennai, Tamil Nadu, India

Now
95 °F

Scattered clouds.


Feels Like: 107 °F
Forecast: 83 / 97 °F
Wind: 7 mph from South

Location: Madras / Minambakkam

Current Time: Apr 28, 2015 at 1:27:40 PM

Latest Report: Apr 28, 2015 at 12:40 PM


Visibility: N/A

Pressure: 29.80 "Hg

Humidity: 53%

Dew point: 75 °F

Location of ChennaiLocation

Historic Weather in Chennai — Graph

°F

Chennai temperature yesterday

Maximum temperature yesterday: 93 °F (at 12:10 PM)
Minimum temperature yesterday: 81 °F (at 4:40 AM)
Average temperature yesterday: 87 °F

Past Weeks' High & Low Weather Summary

 TemperatureHumidityPressure
High99 °F (Apr 23, 12:40 PM)94% (Apr 13, 11:40 PM)29.95 "Hg (Apr 13, 11:40 PM)
Low73 °F (Apr 14, 2:40 AM)39% (Apr 14, 12:10 PM)29.68 "Hg (Apr 18, 2:40 PM)
Average86 °F73%29.81 "Hg
* Reported Apr 13 11:40 AM — Apr 28 11:40 AM, Chennai, Weather by CustomWeather, © 2015

Note: Actual official high and low records may vary slightly from our data, if they occured in-between our weather recording intervals... More about our weather records

Advertising

Chennai weather history for previous 24 hours

 ConditionsComfort  
Time TempWeatherWind HumidityBarometerVisibility
11:40 AM
Tue, Apr 28
93 °FScattered clouds.9 mph56%29.83 "Hg5 mi
11:10 AM91 °FScattered clouds.9 mph59%29.86 "Hg5 mi
10:40 AM91 °FScattered clouds.9 mph59%29.86 "Hg5 mi
10:10 AM91 °FPassing clouds.9 mph59%29.86 "Hg5 mi
9:40 AM90 °FPassing clouds.12 mph63%29.86 "Hg5 mi
9:10 AM88 °FPassing clouds.9 mph70%29.89 "Hg5 mi
8:40 AM88 °FPassing clouds.9 mph70%29.89 "Hg4 mi
8:10 AM86 °FPassing clouds.9 mph75%29.86 "Hg4 mi
7:40 AM84 °FPassing clouds.7 mph79%29.86 "Hg4 mi
7:10 AM82 °FPassing clouds.6 mph84%29.86 "Hg4 mi
6:40 AM81 °FPassing clouds.3 mph89%29.86 "Hg4 mi
6:10 AM79 °FPassing clouds.3 mph94%29.83 "Hg4 mi
5:40 AM79 °FPassing clouds.3 mph94%29.83 "Hg4 mi
5:10 AM79 °FPassing clouds.3 mph94%29.83 "Hg4 mi
4:40 AM82 °FPassing clouds.3 mph84%29.83 "Hg4 mi
4:10 AM82 °FPassing clouds.5 mph84%29.80 "Hg4 mi
3:40 AM82 °FPassing clouds.3 mph84%29.80 "Hg4 mi
3:10 AM82 °FPassing clouds.5 mph84%29.80 "Hg4 mi
2:40 AM82 °FPassing clouds.3 mph84%29.80 "Hg4 mi
2:10 AM82 °FClear.5 mph84%29.83 "Hg4 mi
1:40 AM82 °FClear.3 mph84%29.83 "Hg4 mi
1:10 AM82 °FClear.3 mph79%29.83 "Hg4 mi
12:40 AM82 °FClear.3 mph79%29.83 "Hg4 mi
12:10 AM82 °FClear.3 mph79%29.86 "Hg4 mi
11:40 PM
Mon, Apr 27
84 °FClear.5 mph74%29.86 "Hg4 mi
11:10 PM84 °FClear.6 mph74%29.86 "Hg4 mi
10:40 PM84 °FClear.5 mph74%29.86 "Hg4 mi
10:10 PM84 °FClear.6 mph79%29.86 "Hg4 mi
9:40 PM84 °FClear.7 mph79%29.86 "Hg4 mi
9:10 PM84 °FClear.6 mph74%29.86 "Hg4 mi
8:40 PM84 °FClear.7 mph74%29.86 "Hg4 mi
8:10 PM84 °FClear.7 mph79%29.83 "Hg4 mi
7:40 PM86 °FPassing clouds.6 mph75%29.83 "Hg4 mi
7:10 PM86 °FPassing clouds.7 mph75%29.83 "Hg4 mi
6:40 PM86 °FPassing clouds.7 mph75%29.80 "Hg4 mi
6:10 PM88 °FPassing clouds.8 mph66%29.80 "Hg5 mi
5:40 PM88 °FPassing clouds.9 mph70%29.80 "Hg5 mi
5:10 PM90 °FPassing clouds.12 mph67%29.77 "HgN/A
4:40 PM91 °FScattered clouds.9 mph63%29.77 "HgN/A
4:10 PM91 °FScattered clouds.12 mph63%29.77 "HgN/A
3:40 PM91 °FScattered clouds.12 mph63%29.77 "HgN/A
3:10 PM93 °FPassing clouds.12 mph59%29.77 "HgN/A
2:40 PM93 °FPassing clouds.9 mph59%29.77 "HgN/A
2:10 PM93 °FPassing clouds.9 mph59%29.80 "HgN/A
1:40 PM93 °FPassing clouds.13 mph56%29.80 "HgN/A
1:10 PM93 °FScattered clouds.15 mph59%29.83 "Hg6 mi
Weather by CustomWeather, © 2015

See weather overviewHow to use our weather pages